Home > Weather > Munich > Past weeks

Flag for Germany Past Weather in Munich, Bavaria, Germany — Yesterday and Last 2 Weeks

Now
64 °F

Sunny.


Feels Like: 64 °F
Forecast: 62 / 73 °F
Wind: 6 mph from South

Location: Oberpfaffenhofen

Current Time: Jul 26, 2016 at 10:01:30 PM

Latest Report: Jul 26, 2016 at 7:20 PM


Visibility: 10 mi

Pressure: 30.12 "Hg (28.32 "Hg at 526m altitude)

Humidity: 100%

Dew Point: 64 °F

Location of MunichLocation

Past Weather in Munich — Graph

°F

Munich Temperature Yesterday

Maximum temperature yesterday: 77 °F (at 4:20 PM)
Minimum temperature yesterday: 64 °F (at 9:20 AM)
Average temperature yesterday: 70 °F

High & Low Weather Summary for the Past Weeks

 TemperatureHumidityPressure
High86 °F (Jul 20, 5:20 PM)100% (Jul 12, 6:50 AM)30.33 "Hg (Jul 12, 6:50 AM)
Low50 °F (Jul 14, 6:50 AM)31% (Jul 20, 2:20 PM)29.95 "Hg (Jul 11, 7:20 PM)
Average68 °F73%30.10 "Hg
* Reported Jul 11 7:20 PM — Jul 26 7:20 PM, Munich, Weather by CustomWeather, © 2016

Note: Actual official high and low records may vary slightly from our data, if they occured in-between our weather recording intervals... More about our weather records

Advertising

Munich Weather History for the Previous 24 Hours

Scroll right to see more
 ConditionsComfort  
Time TempWeatherWind HumidityBarometerVisibility
7:20 PM
Tue, Jul 26
64 °FSunny.6 mph100%30.12 "Hg10 mi
6:50 PM63 °FSunny.6 mph100%30.12 "Hg10 mi
6:20 PM63 °FPartly sunny.1 mph100%30.12 "HgN/A
5:50 PM63 °FPartly sunny.2 mph94%30.12 "HgN/A
5:20 PM63 °FSprinkles. Broken clouds.1 mph94%30.12 "HgN/A
4:50 PM61 °FThundershowers. Broken clouds.5 mph94%30.12 "HgN/A
4:20 PM61 °FThunderstorms. Broken clouds.12 mph94%30.12 "Hg4 mi
3:50 PM64 °FRain showers. Broken clouds.18 mph88%30.12 "Hg5 mi
3:20 PM75 °FBroken clouds.7 mph69%30.09 "HgN/A
2:50 PM73 °FBroken clouds.5 mph74%30.09 "HgN/A
2:20 PM73 °FBroken clouds.3 mph69%30.12 "HgN/A
1:50 PM73 °FBroken clouds.3 mph74%30.12 "HgN/A
1:20 PM73 °FBroken clouds.8 mph74%30.12 "HgN/A
12:50 PM73 °FPartly sunny.5 mph74%30.12 "HgN/A
12:20 PM75 °FBroken clouds.2 mph74%30.12 "HgN/A
11:50 AM72 °FBroken clouds.2 mph83%30.12 "HgN/A
11:20 AM66 °FScattered showers. Partly sunny.5 mph88%30.15 "HgN/A
11:03 AM66 °FLight rain. Partly sunny.13 mph88%30.15 "Hg6 mi
10:20 AM72 °FScattered clouds.6 mph78%30.15 "HgN/A
9:50 AM72 °FScattered clouds.5 mph78%30.15 "HgN/A
9:20 AM72 °FScattered clouds.3 mph78%30.15 "HgN/A
8:50 AM70 °FScattered clouds.6 mph83%30.15 "HgN/A
8:20 AM68 °FPartly sunny.5 mph83%30.15 "HgN/A
7:50 AM68 °FPartly sunny.3 mph88%30.15 "HgN/A
7:20 AM66 °FPartly sunny.3 mph94%30.12 "HgN/A
6:50 AM64 °FBroken clouds.3 mph100%30.12 "HgN/A
Weather by CustomWeather, © 2016

See weather overviewHow to use our weather pages